Showing default

BLACK KITE-2, 68474

Orbit data source: Space-Track

BLACK KITE-2, 68474 is a Taiwanese payload satellite in SSO that was launched on Mon, 30 Mar 2026 UTC via an FALCON 9 launch vehicle from the Air Force Western Test Range (AFWTR). Payload-class satellites include a variety of spacecraft equipped with specific instruments for various scientific and technological missions. These include communications satellites like Starlink; space stations such as the ISS; scientific satellites like the Hubble; Earth observation satellites from companies like Planet Labs, Umbra, and HawkEye 360; GPS; miniature CubeSats for education and research; and military/defense satellites.

Loading next visibility...
Identifier
68474, 2026-067BL
Orbit
SSO
Country
Flag of TWTW / TWN
Related business
Manufacturer
RAPTEK
Mission
Operational Commercial Communications
Bus & Motor
CUBESAT 8U, Unknown motor
Mass
15 kg wet, ~15 kg dry
Launch date (UTC)
2026-03-30 (6 months ago)
Launch vehicle
FALCON 9
Launch site
Air Force Western Test Range (AFWTR)
Object type
Payload
Rocket body
Debris
Shape & HBR
Box, 0.2 m
Radar Cross Section
0.100 m², Medium (>0.1 m² and < 1m²)

Expand to show TLE details & history
Last TLE update: 11 hours ago

TLE from 11 hours ago
0 BLACK KITE-2
1 68474U 26067BL  26263.13049698  .00001157  00000-0  11697-3 0  9990
2 68474  97.7652 220.0820 0001082 340.9284  19.1895 14.92933807 25895
Epoch: 2026-09-20T03:07Z
TLE epoch observation values (Epoch: 2026-09-20T03:07:54.939Z)
Latitude
0.00003°
Longitude
174.07399°
Altitude
591.124 km
Speed
7.565 km/s
True Right ascension
14h 40m 19s
True Declination
0° 00' 00"
Sunlit
Object was in daylight at epoch
Visualization orbit readout
Latitude
Unknown
Longitude
Unknown
Altitude
Unknown
Speed
Unknown
Apparent Right ascension
Unknown
Apparent Declination
Unknown
Sunlit
N/A
Visualization observer readout
Local Sidereal Time
06:54:01
Azimuth
Unknown
Elevation
Unknown
Doppler factor
Unknown
Orbital elements
Apogee altitude
586.564 km
Perigee altitude
585.058 km
Semi-major axis
6,963.948 km
Eccentricity
0.00011
Inclination
97.7652°
RAAN
220.082°
Arg. of periapsis
340.9284°
True anomaly
19.19358°
Mean anomaly
19.1895°
Eccentric anomaly
19.19154°
Mean motion
3.73474 °/min
Orbital period
96.39 mins
BSTAR
0.00011697
Loading maneuver chart data...
Computing Atmospheric mass density...
Loading historical data...
Loading historical data...
Loading historical data...
Loading historical data...
Loading historical data...
Loading historical data...
Loading historical data...

Documentation

Showing up to 5 results
|